GFSCGP_500_spd_096.txt.gz
Wind_Speed
47 49 51 45 45 34 58 57 56 54 53 50 45 42 40 38 37 34 31 29 27 25 23 22 22 20 19 18 15 15 16 16 17 17 18 19 20 21 21 22 24 24 25 27
50 44 41 42 39 35 59 58 55 52 51 50 48 46 45 44 40 38 35 32 31 28 26 26 24 22 21 20 18 18 20 20 21 20 21 22 23 24 24 26 26 28 29 30
51 48 45 41 40 38 65 56 55 54 53 54 51 51 51 48 45 40 38 35 35 33 30 28 26 26 25 24 22 21 22 23 25 25 25 26 27 28 27 28 29 29 30 31
63 51 50 43 41 44 64 58 57 56 57 58 55 53 53 50 47 44 41 40 38 34 31 30 29 29 29 26 26 25 25 26 28 28 27 27 29 30 30 30 30 30 31 32
58 55 51 44 42 51 59 55 55 58 57 57 56 56 56 54 53 47 43 40 39 35 35 34 33 31 31 30 28 27 26 27 28 29 28 29 29 30 31 32 32 32 33 34
62 62 59 49 44 61 56 54 55 57 59 62 59 58 58 56 50 45 43 42 41 38 38 37 35 33 33 31 30 29 28 27 28 29 29 30 31 32 33 33 34 34 35 38
61 70 68 58 66 68 64 54 56 60 64 64 59 60 61 57 53 50 45 45 43 41 40 39 37 36 35 34 32 31 30 30 30 31 31 31 32 33 34 35 36 37 39 40
68 64 59 58 59 56 74 64 64 67 68 64 62 66 65 59 55 50 47 44 44 43 40 40 39 38 37 37 36 34 33 33 33 34 33 33 34 36 37 39 39 39 40 40
60 69 55 58 58 66 67 64 60 63 64 64 65 65 63 58 54 49 45 43 43 45 43 43 43 41 41 39 39 38 36 36 36 36 35 35 37 38 40 41 41 41 41 42
52 52 52 54 57 67 64 57 58 61 62 64 66 65 66 59 53 50 47 42 44 45 43 44 45 43 43 42 42 40 40 38 38 38 38 38 39 40 42 42 41 41 42 45
47 48 50 53 58 61 70 62 60 56 59 62 66 66 63 58 52 45 45 45 45 45 46 46 46 45 45 45 43 42 40 39 38 39 39 40 41 42 44 42 41 42 45 47
45 43 45 49 53 60 56 58 53 56 62 64 63 67 63 57 48 45 44 43 44 44 44 44 45 45 45 46 44 41 40 40 40 39 39 42 44 42 40 40 42 46 50 56
45 47 47 47 48 55 65 57 52 53 52 56 58 63 54 52 46 42 41 41 41 43 45 46 46 45 45 43 42 41 40 40 40 41 42 43 43 39 41 44 51 55 59 58
47 48 50 51 47 48 55 63 61 50 52 53 55 53 47 45 43 38 37 37 41 43 44 46 45 43 42 40 40 40 40 41 42 44 45 43 40 44 48 54 59 62 61 57
47 50 47 48 45 46 40 42 47 53 61 50 48 47 39 38 39 38 40 43 43 42 42 41 40 42 41 42 42 42 43 43 45 45 43 45 48 53 57 61 64 58 59 57
54 52 50 47 45 45 44 40 40 44 43 45 57 53 44 41 44 43 41 41 42 42 42 42 43 44 43 44 45 45 45 45 46 47 47 50 56 64 68 62 60 58 57 59
58 59 47 45 46 48 51 54 52 50 50 53 54 49 44 44 48 48 45 44 43 44 44 45 46 46 47 46 45 46 47 48 48 51 57 62 63 62 60 60 57 59 60 61
33 52 62 57 52 55 46 48 51 54 55 54 55 51 51 50 52 54 53 50 48 49 50 48 47 46 45 45 47 49 51 52 56 59 62 65 63 61 59 59 58 60 61 61
39 37 41 64 63 59 53 49 50 50 50 57 55 54 51 52 53 54 52 46 44 47 47 45 46 47 50 52 54 56 60 61 62 65 63 58 58 60 58 57 60 60 61 62
45 40 39 42 59 55 46 45 45 51 53 45 48 51 56 55 58 56 54 58 59 57 55 54 55 57 61 62 62 63 64 66 62 58 58 59 57 56 58 58 58 59 60 61
50 50 48 46 47 48 50 44 46 58 39 42 47 51 57 59 59 57 57 55 55 57 59 59 58 59 60 62 61 60 61 59 57 57 57 57 58 54 55 57 59 60 61 63
51 50 51 50 48 41 41 41 42 39 42 47 44 45 52 57 58 57 59 62 65 65 66 65 65 66 66 66 65 62 58 56 57 58 58 54 55 56 58 59 61 62 63 61
55 54 53 52 41 41 43 46 45 45 43 47 49 48 49 51 56 60 61 62 60 62 65 66 66 65 63 62 57 56 56 59 57 55 54 55 56 57 59 60 61 62 63 65
43 44 45 47 45 46 50 51 49 46 45 46 49 50 51 53 53 54 56 58 57 55 55 55 57 57 58 58 56 55 52 52 53 55 56 56 57 57 59 62 63 65 67 69
48 47 47 48 51 48 48 48 48 48 47 47 46 47 49 50 50 50 50 51 51 53 53 50 49 48 48 49 50 50 51 52 54 56 56 56 57 60 64 66 68 69 71 72
47 47 46 46 48 51 52 52 49 47 47 46 45 46 46 46 45 44 45 45 45 44 44 46 46 47 48 50 52 53 53 54 55 56 58 61 64 66 69 70 72 73 74 74

GFSCGP_500_spd_102.txt.gz
Wind_Speed
49 49 48 45 42 42 40 37 32 34 37 34 37 43 44 44 43 42 39 37 35 32 34 29 27 27 25 22 22 21 19 18 17 18 18 17 17 17 18 18 19 21 20 21
46 43 44 45 43 41 43 45 34 30 28 35 36 47 47 48 46 46 44 42 39 38 35 31 30 30 28 27 26 23 23 22 23 21 20 19 18 19 20 21 22 23 24 25
42 42 43 43 44 44 44 42 37 33 31 38 38 34 51 51 50 49 48 46 45 40 37 35 33 33 32 29 29 28 27 26 25 24 23 22 22 23 24 25 26 26 26 26
50 47 45 46 46 44 42 42 40 36 35 39 45 42 50 51 52 52 49 49 45 42 40 36 34 34 34 33 32 29 29 28 26 26 25 25 25 25 26 27 28 28 28 29
52 48 48 49 46 45 44 46 49 41 42 43 48 51 38 56 55 55 52 51 47 44 43 39 38 39 38 34 33 32 31 30 29 28 28 28 28 28 27 27 29 29 31 31
57 50 51 49 51 48 47 51 52 50 48 52 43 47 47 53 57 56 53 50 48 46 45 43 41 41 38 36 35 34 34 35 33 32 30 31 30 30 30 30 30 31 33 34
58 57 51 53 53 52 51 53 56 55 53 52 49 52 44 38 60 57 55 53 51 50 50 48 44 43 42 40 39 38 37 37 37 35 34 33 33 33 32 33 33 34 36 37
61 60 59 55 57 54 54 55 57 59 57 51 54 49 44 42 53 61 56 56 53 52 51 49 46 45 44 42 40 41 40 41 40 38 39 36 35 36 36 35 36 37 39 39
57 60 58 59 57 57 57 58 54 61 59 58 57 45 46 41 42 61 55 55 52 52 50 48 45 44 46 44 44 45 44 43 41 40 41 40 38 38 39 38 39 39 41 42
53 53 55 56 57 59 55 55 59 60 60 60 54 47 43 41 35 51 55 49 47 51 50 48 48 46 46 46 46 46 45 45 44 43 42 43 41 40 41 40 42 42 43 45
48 52 55 57 61 61 62 61 60 59 64 65 60 48 45 49 47 46 53 53 49 49 49 49 49 48 48 49 49 48 47 46 46 46 45 44 42 42 42 43 44 45 47 48
46 46 51 53 53 54 58 62 62 59 59 67 63 61 59 53 53 51 51 54 50 50 51 50 50 50 49 49 49 49 50 49 48 47 45 43 42 43 44 45 46 48 48 49
48 50 48 50 53 49 56 62 66 64 60 60 68 57 62 60 55 48 48 53 51 49 49 48 48 53 51 50 49 49 49 48 47 46 45 45 45 45 46 47 48 49 50 49
39 44 47 45 42 39 40 46 50 52 58 55 56 58 62 61 56 53 44 43 42 44 49 48 48 50 50 50 50 51 50 48 48 47 47 47 47 47 48 49 50 52 52 50
41 41 40 41 45 42 43 41 40 51 57 48 52 55 48 47 53 56 53 50 42 40 39 43 47 48 49 51 51 50 49 49 49 49 48 47 48 48 49 51 53 53 51 47
43 41 38 38 39 39 41 41 42 45 48 54 50 48 44 50 52 46 51 46 41 40 46 43 45 45 47 49 49 49 48 49 49 50 50 49 49 51 53 54 52 50 48 48
41 42 41 40 39 41 42 35 38 37 43 42 44 39 42 44 46 43 41 42 41 39 40 44 47 47 48 49 48 48 47 48 49 50 50 50 52 52 52 51 50 49 49 52
40 41 41 40 41 44 33 32 31 30 31 34 39 44 44 42 41 44 49 51 47 46 48 50 51 51 51 49 47 48 48 48 49 50 49 51 50 51 52 51 50 50 54 58
39 43 44 45 44 42 39 36 31 33 27 26 31 35 37 39 43 41 44 50 51 47 50 50 47 46 48 48 49 50 49 50 51 52 52 51 50 51 51 50 55 59 62 65
40 40 45 45 43 43 37 34 38 36 31 29 33 35 35 40 42 33 40 46 47 46 46 49 48 48 47 46 48 49 49 49 50 49 49 50 51 57 63 60 60 63 66 68
40 44 44 42 40 36 37 37 33 34 31 29 28 35 37 40 38 38 39 46 49 51 50 50 51 51 52 54 53 53 56 55 52 54 57 59 58 58 61 62 66 70 66 67
38 39 41 41 41 37 40 39 36 28 25 26 27 34 36 37 35 39 42 44 48 53 52 48 47 47 48 47 47 48 49 51 54 55 57 62 67 68 66 68 66 68 68 72
47 47 46 45 42 41 43 41 37 35 38 38 35 31 37 41 39 40 41 41 42 45 47 48 50 51 50 51 54 55 57 61 66 68 63 59 60 63 67 69 68 74 71 65
44 45 47 45 44 44 45 44 42 38 38 38 38 36 37 42 44 43 42 44 46 48 48 48 49 54 57 61 63 64 63 63 63 62 63 65 67 68 69 69 66 65 65 61
39 39 42 44 45 43 44 43 41 41 39 40 39 41 42 43 45 46 47 47 48 48 47 48 49 49 49 50 52 53 55 57 59 60 60 61 61 62 64 66 64 61 59 57
43 43 43 44 43 42 41 41 40 39 39 39 40 40 39 38 38 39 42 43 44 46 47 48 50 52 53 53 54 55 57 58 60 61 63 63 62 60 60 62 61 56 52 54

GFSCGP_500_spd_105.txt.gz
Wind_Speed
51 50 49 46 42 40 35 34 33 34 29 30 26 27 22 38 41 42 41 39 36 33 36 33 29 28 26 24 23 23 23 23 22 21 20 20 20 19 20 20 19 19 19 21
48 47 46 43 41 41 42 42 44 37 37 39 31 29 29 35 45 42 45 43 40 40 38 34 32 30 28 29 28 26 27 26 26 25 25 24 23 23 22 21 20 20 23 25
44 43 42 44 42 44 44 45 40 34 37 40 33 32 35 32 45 44 45 44 44 42 40 38 36 34 33 31 31 30 30 29 28 28 27 25 24 24 23 23 22 25 27 26
47 40 42 42 42 42 43 42 41 38 38 42 39 42 32 33 26 43 46 47 46 45 42 40 37 36 34 34 35 33 33 32 31 31 29 27 26 25 26 25 26 28 28 28
46 41 40 42 39 43 44 43 40 39 40 42 44 49 32 31 32 29 42 51 47 46 45 41 41 40 39 39 36 36 36 33 33 33 32 29 29 28 28 29 28 29 30 31
54 50 49 44 47 47 47 45 43 42 42 46 45 47 48 32 28 28 26 52 50 47 47 45 46 46 42 41 40 39 38 38 36 35 34 33 32 31 30 31 31 32 32 33
53 57 52 52 53 55 52 49 49 48 49 50 47 49 48 36 30 33 29 40 54 50 50 50 49 47 45 43 43 43 41 40 39 38 37 36 34 34 33 33 33 34 35 35
56 57 55 56 58 56 54 53 56 54 52 47 47 49 44 36 32 32 32 31 50 53 51 52 50 48 45 46 45 46 43 42 42 42 41 39 38 37 37 36 37 37 37 38
58 61 57 58 58 59 59 57 51 55 53 55 51 48 47 38 34 32 35 30 36 52 54 53 52 49 46 47 47 47 47 45 46 45 45 43 42 41 40 39 39 39 39 40
61 58 59 56 58 59 56 52 53 54 57 59 52 50 46 47 43 37 39 35 33 45 55 54 52 51 49 49 49 49 48 47 48 47 46 46 46 45 43 41 42 42 41 42
60 61 61 60 62 61 57 59 55 55 51 55 53 51 47 43 45 42 34 37 38 35 50 53 55 53 52 52 51 49 49 49 49 49 49 50 48 48 46 44 44 44 44 45
51 52 53 52 52 51 52 52 53 51 57 54 53 46 49 49 50 46 48 50 48 41 44 50 52 52 53 52 51 51 52 52 50 51 51 51 50 48 47 47 46 46 46 47
45 48 49 49 48 48 52 51 52 55 58 60 57 42 47 47 49 54 56 53 52 56 45 54 52 52 51 49 51 52 50 50 50 51 51 50 49 47 47 48 48 47 48 50
44 44 43 44 41 40 41 43 41 43 48 56 62 48 49 48 44 46 56 58 57 59 51 45 58 47 49 48 51 53 52 49 51 51 50 49 49 47 48 49 50 49 51 52
42 43 43 47 50 49 47 45 43 46 46 53 56 58 58 59 55 45 44 49 56 52 51 48 49 53 53 51 52 51 51 50 53 52 51 51 50 49 50 50 51 52 55 55
43 42 39 41 43 45 49 50 50 48 44 46 51 55 54 56 50 40 45 47 54 52 53 53 50 49 52 53 53 54 55 55 55 55 54 53 52 53 54 54 54 53 53 53
40 40 40 42 42 44 46 43 44 46 47 45 49 44 44 51 53 50 46 46 49 50 43 46 48 48 50 50 52 53 54 53 53 54 54 53 54 53 53 53 53 52 52 51
33 35 38 41 40 44 38 40 39 39 36 36 41 46 47 46 44 43 41 41 41 45 43 42 44 45 46 51 56 52 53 53 53 53 53 51 51 51 51 49 49 48 49 50
37 37 40 41 42 43 42 37 39 36 32 28 33 38 45 44 40 43 34 34 31 37 43 44 44 46 47 50 51 53 54 53 50 48 48 48 51 53 53 52 50 50 52 57
41 39 38 39 40 37 38 39 39 36 34 30 33 35 36 33 37 30 27 27 29 35 37 45 49 51 52 53 52 53 52 53 52 51 53 53 52 51 52 52 53 54 53 54
44 45 44 43 41 38 34 31 29 35 29 24 23 34 37 37 36 35 34 30 32 34 38 44 49 52 52 58 61 58 56 51 50 51 50 51 50 49 50 51 53 55 60 59
40 40 43 42 42 41 38 32 29 29 29 28 21 24 31 34 33 34 36 32 33 34 35 39 41 45 50 53 53 54 55 53 52 50 50 52 56 58 59 58 58 58 64 67
40 39 38 38 37 35 31 32 30 28 29 33 34 33 32 30 32 37 40 39 35 33 35 37 41 43 49 51 50 54 56 57 57 56 54 53 53 54 55 59 65 69 72 67
39 39 39 38 38 36 36 34 37 37 36 38 37 36 36 38 38 38 42 43 41 39 39 38 40 41 45 47 49 51 53 55 57 58 59 61 63 64 66 70 68 66 67 70
37 39 41 43 44 42 43 42 44 45 44 41 39 39 41 41 41 42 44 44 43 42 41 42 42 43 45 47 48 49 50 52 53 55 57 59 61 64 63 62 63 64 65 65
38 39 41 41 44 47 45 45 46 46 45 45 43 43 43 44 44 43 42 45 44 41 39 40 42 43 44 45 46 47 48 50 52 53 55 56 57 60 62 63 64 65 64 61

GFSCGP_500_spd_108.txt.gz
Wind_Speed
56 56 56 51 46 44 39 36 30 31 33 34 26 25 27 23 27 36 37 35 34 33 37 33 31 28 27 24 23 22 23 23 23 24 24 24 25 23 23 23 24 24 24 23
57 55 52 48 47 46 41 39 36 37 41 38 34 27 23 26 28 28 37 40 38 39 38 36 34 31 29 28 28 28 28 28 28 28 29 28 27 25 26 26 26 26 25 26
51 52 52 49 45 45 43 41 38 37 38 38 40 38 34 28 29 30 35 43 42 41 39 38 37 34 34 33 32 31 33 32 31 31 30 29 29 28 28 30 28 27 28 29
50 49 48 49 48 47 46 42 40 41 40 43 41 48 38 30 26 30 32 40 44 42 41 40 38 37 36 35 38 35 35 34 34 34 32 33 33 32 32 32 30 29 30 31
50 49 49 49 48 48 47 43 42 42 42 44 44 51 36 35 29 20 17 20 42 42 42 42 40 40 42 43 39 38 38 36 36 35 36 36 35 35 33 33 32 32 32 33
57 51 52 48 49 50 47 44 45 44 46 48 46 47 51 41 27 24 23 24 22 40 46 45 45 45 44 45 42 40 39 39 40 39 39 38 38 38 37 36 35 35 34 35
59 59 52 54 54 54 46 48 51 50 49 49 49 47 49 34 32 29 24 23 26 27 41 50 49 46 45 45 45 44 43 42 44 44 42 41 41 40 41 39 37 37 37 37
61 57 57 53 54 52 51 56 56 55 50 49 50 50 52 45 36 36 29 26 26 27 30 42 51 51 48 48 48 47 46 46 47 47 45 45 44 43 44 42 41 41 40 40
62 60 57 58 58 58 57 57 55 55 56 54 50 34 32 37 37 37 34 28 28 29 31 34 47 53 52 50 51 50 50 48 49 49 49 48 48 47 46 47 45 44 44 44
60 61 59 61 61 59 58 55 53 54 57 58 49 45 37 40 41 38 39 34 35 33 34 33 36 47 54 53 52 54 54 52 51 51 51 50 49 50 50 49 48 48 47 47
64 65 64 65 61 58 59 60 57 55 55 56 54 47 41 42 44 45 45 43 42 42 39 39 38 37 49 62 61 57 56 55 55 54 54 53 52 51 52 52 52 51 50 49
69 69 68 58 56 52 51 50 54 56 57 56 56 48 46 47 48 51 50 49 49 46 43 41 45 42 35 47 63 61 60 60 58 58 57 55 54 53 54 54 54 53 52 51
61 61 60 60 59 57 58 57 56 50 53 56 55 44 45 49 52 54 52 51 52 52 50 49 47 46 42 39 50 64 59 61 61 60 60 57 55 55 54 55 55 54 54 54
54 52 53 51 49 47 45 43 43 43 47 54 58 49 55 52 51 50 47 49 50 52 47 52 53 48 46 44 42 54 61 60 60 61 60 58 56 56 56 55 54 54 54 56
40 41 45 43 44 45 47 47 48 49 52 52 53 53 52 56 55 60 59 55 54 53 47 45 49 49 47 46 43 37 59 61 64 61 58 58 57 57 56 54 56 56 57 57
36 38 39 40 44 47 48 47 49 51 52 53 51 50 47 45 51 56 62 63 58 54 54 50 49 50 45 44 42 38 41 59 58 60 58 58 58 59 57 57 57 56 58 59
38 39 41 41 41 44 46 40 43 45 50 46 48 42 44 48 50 53 56 53 51 51 50 48 46 51 52 45 45 45 44 44 57 68 61 62 60 60 61 61 61 59 59 58
43 43 44 43 43 45 38 39 41 42 40 41 40 37 45 48 49 50 48 49 48 48 50 52 55 56 53 52 51 52 51 51 52 59 61 59 58 57 57 55 54 54 53 55
50 48 47 46 44 40 36 38 42 43 37 38 37 40 43 44 48 44 48 52 54 53 51 53 50 48 49 48 52 51 51 54 54 55 56 56 56 57 53 48 47 49 51 52
47 45 43 43 41 37 35 36 36 37 37 36 35 36 37 41 42 42 45 48 51 54 52 53 55 50 49 51 50 49 51 52 57 61 63 64 65 55 52 51 51 49 54 52
49 47 41 36 37 37 38 38 38 35 31 26 33 38 39 40 40 41 43 39 43 43 39 38 40 43 44 47 49 51 54 55 58 59 59 57 49 47 50 52 54 54 53 52
42 42 42 40 41 41 41 37 32 27 29 34 30 32 34 34 35 39 40 39 37 38 37 38 37 39 42 44 47 50 54 58 63 62 60 58 55 54 55 53 49 48 51 54
46 45 39 39 35 33 32 32 28 30 33 31 31 31 33 32 30 32 34 36 38 39 39 38 40 42 42 44 44 45 47 47 49 57 62 64 62 60 54 53 55 59 63 62
41 41 41 40 37 35 35 35 36 39 37 37 34 32 33 36 37 38 39 40 40 39 40 41 42 42 42 43 45 48 51 50 50 51 52 56 59 60 59 57 57 59 62 65
43 39 41 41 41 38 36 36 35 37 39 38 39 40 40 40 41 42 46 48 49 48 46 45 45 45 46 47 46 46 45 45 48 50 52 54 57 60 62 63 65 66 68 68
42 39 41 41 38 40 41 42 43 42 42 43 42 44 46 46 46 45 45 47 48 48 46 45 44 44 42 41 39 40 41 43 44 44 47 50 53 55 56 56 57 58 59 61

GFSCGP_500_spd_111.txt.gz
Wind_Speed
60 60 60 55 53 48 47 45 42 39 40 37 33 32 29 30 24 21 27 35 35 30 32 31 28 26 25 23 24 25 24 24 23 23 23 23 24 22 23 24 24 25 26 28
63 62 56 53 50 49 48 44 43 40 40 38 34 32 30 32 23 25 23 28 34 37 37 34 31 28 26 25 25 26 26 27 26 27 28 27 27 25 26 26 26 28 29 30
62 61 59 56 52 50 49 45 42 40 40 38 37 34 30 28 28 24 22 24 28 34 39 37 34 31 30 28 28 29 30 31 29 30 31 30 29 29 29 29 30 31 32 33
64 61 59 56 53 48 48 45 44 43 40 41 41 42 36 34 32 28 21 18 23 32 38 41 38 36 31 29 32 33 34 34 32 33 33 33 32 32 32 33 33 33 35 35
65 62 58 56 52 51 51 45 44 43 44 45 42 46 32 34 36 24 22 20 19 23 40 43 40 37 36 37 36 37 37 37 36 36 35 36 35 35 36 36 36 38 38 38
65 60 56 53 53 53 52 48 46 45 46 48 44 46 45 36 30 29 28 26 24 24 24 38 43 41 39 40 40 39 39 39 39 40 40 39 39 39 40 39 41 40 41 42
65 61 57 55 54 55 53 52 50 51 50 53 51 48 53 37 34 31 29 31 29 27 27 26 33 41 42 43 44 44 44 43 43 43 43 43 43 44 44 43 44 43 44 44
62 64 62 59 58 54 53 55 54 54 49 46 47 47 47 41 34 31 31 31 32 31 29 29 33 34 39 46 47 46 46 47 47 48 46 47 48 48 48 47 47 47 47 48
58 60 61 61 59 56 58 58 56 53 53 52 46 38 38 40 36 39 40 39 38 39 39 34 35 37 38 39 45 47 49 49 51 52 53 52 51 50 51 50 51 51 51 51
62 62 64 67 65 63 60 59 57 57 56 55 45 44 38 38 38 34 39 42 43 43 41 41 39 38 39 40 40 45 50 54 54 55 55 55 56 55 55 54 52 53 54 54
67 67 71 67 65 62 61 61 61 59 58 57 50 45 41 37 39 43 41 42 46 49 49 45 43 40 41 41 41 42 45 49 58 58 56 58 59 60 61 59 57 56 57 56
73 69 68 66 64 61 61 59 55 55 57 54 56 45 41 43 46 46 50 47 46 51 53 53 51 50 45 44 43 38 34 33 42 56 64 63 60 61 62 62 61 60 60 60
67 74 68 68 64 65 62 62 61 58 60 59 58 38 45 48 50 52 53 54 52 52 53 57 56 55 51 49 47 45 45 45 40 36 50 65 66 58 63 64 63 61 61 61
68 68 67 61 59 56 55 58 57 47 45 55 57 40 52 53 54 54 55 56 55 54 55 55 58 59 57 54 53 50 49 47 43 44 42 50 64 59 60 63 63 64 63 62
62 64 65 67 63 59 59 55 52 54 54 58 49 50 47 53 57 57 56 56 58 58 58 58 54 52 53 48 52 53 52 53 53 47 52 55 61 64 62 60 61 63 65 64
60 59 59 63 64 61 58 56 57 56 53 56 56 55 48 54 54 52 56 57 57 57 55 57 57 58 56 53 52 53 51 45 48 48 50 57 58 58 61 64 66 67 67 68
62 65 60 58 57 57 57 49 53 51 48 44 45 38 38 47 51 51 54 54 56 54 53 52 52 51 50 54 55 51 51 47 47 48 49 52 61 61 62 61 61 60 61 62
43 48 45 44 46 49 45 45 43 43 42 41 42 39 45 46 51 52 52 54 54 54 53 52 50 48 45 42 43 45 47 49 51 54 53 53 54 58 61 67 67 64 57 55
34 37 40 42 43 42 43 42 38 37 35 38 38 40 43 44 47 43 52 53 52 52 51 49 48 46 45 46 46 48 49 50 53 55 56 57 60 62 59 61 56 55 58 56
44 45 46 48 47 47 46 41 37 39 39 40 41 40 41 44 43 45 50 50 48 48 48 46 45 46 45 45 44 48 52 57 59 60 60 62 64 60 62 62 63 62 54 48
48 49 49 48 46 48 43 37 36 37 33 32 32 35 40 43 43 44 46 45 45 46 46 45 45 47 47 45 44 45 48 52 57 60 60 61 59 59 58 57 50 47 46 46
45 46 48 48 45 43 42 37 31 29 32 33 35 38 38 40 43 45 46 46 43 43 43 41 40 41 42 42 43 44 47 49 53 54 53 54 56 57 62 63 63 57 55 52
49 48 45 43 42 38 33 32 36 36 35 34 38 37 37 38 38 40 42 43 42 39 38 39 39 38 39 39 41 44 46 48 50 50 50 47 50 52 50 52 55 58 60 60
47 44 44 44 44 43 41 37 40 36 33 33 35 38 38 39 40 42 42 42 42 41 39 37 36 37 38 37 38 40 42 44 46 49 51 51 50 52 53 54 56 57 58 57
45 45 44 45 46 45 44 37 37 37 36 31 31 34 37 40 41 41 42 43 44 45 44 41 41 41 41 43 43 43 44 45 46 45 46 48 49 49 47 46 48 51 52 54
45 46 48 47 46 42 36 38 46 45 40 35 34 34 35 37 39 41 42 44 46 47 47 46 44 44 43 45 45 44 43 43 43 42 42 43 44 46 47 49 50 52 54 55

GFSCGP_500_spd_114.txt.gz
Wind_Speed
66 64 66 61 54 48 46 46 44 37 40 39 31 31 31 31 27 23 21 22 21 24 28 29 26 24 22 20 18 18 17 19 19 20 21 21 21 21 20 20 20 22 26 28
70 71 64 57 54 49 47 47 41 37 44 40 36 35 34 34 28 24 23 19 16 16 21 26 28 28 26 24 22 20 19 20 20 22 23 23 23 23 24 24 25 27 29 30
69 66 62 59 57 52 52 49 46 43 46 40 37 38 36 32 31 28 21 18 15 18 15 18 28 30 30 26 26 25 24 24 22 23 24 24 24 25 27 28 29 31 30 32
66 64 61 60 56 50 51 48 44 43 46 42 39 43 36 33 30 26 23 21 19 15 18 19 18 28 30 30 30 29 28 27 26 26 26 27 27 27 30 32 32 33 32 35
71 68 64 59 54 51 52 49 46 46 49 45 42 46 36 38 36 27 27 26 22 20 19 22 21 22 32 34 33 32 33 32 31 30 31 31 31 31 33 34 34 34 36 38
69 68 63 53 51 53 52 50 49 48 50 49 46 48 46 40 36 29 28 26 22 23 23 23 23 26 28 32 34 34 36 35 37 36 36 35 35 36 36 38 37 37 41 41
61 69 66 61 57 55 55 53 51 50 52 54 49 51 56 39 34 29 26 25 27 28 30 28 27 23 25 25 29 34 38 39 41 41 41 40 40 40 40 41 41 41 44 45
59 64 68 64 62 55 54 55 53 52 53 51 49 51 52 42 34 30 30 31 31 30 30 31 31 31 30 29 29 31 34 39 44 46 44 45 45 44 44 46 46 45 46 48
58 60 61 65 62 60 59 60 56 56 55 55 55 50 47 44 31 31 32 33 34 33 32 34 36 36 35 36 36 36 37 37 38 43 47 48 48 49 49 49 50 49 49 50
61 61 61 66 63 62 57 55 54 54 55 52 51 50 46 44 38 32 32 34 37 38 39 40 40 42 42 40 41 39 38 39 40 40 41 45 50 52 53 54 54 54 53 51
59 63 64 59 60 59 60 64 63 58 56 54 50 47 43 41 40 38 36 38 37 38 41 44 46 47 47 45 43 42 40 39 40 42 42 45 47 52 59 59 58 57 56 53
59 58 57 56 53 58 62 62 62 60 58 56 55 49 46 45 47 47 45 40 42 43 44 45 46 49 52 50 49 48 45 43 44 44 42 41 44 49 56 60 60 59 59 58
66 63 64 63 63 62 59 55 58 61 58 57 57 44 50 51 51 51 51 50 48 48 50 48 46 48 51 54 56 55 53 53 51 48 47 48 48 45 46 53 60 62 60 59
70 69 68 60 53 52 56 60 67 67 63 57 53 47 51 51 51 51 52 53 51 49 49 50 50 51 50 53 56 59 58 57 54 51 49 50 51 51 52 54 57 62 64 64
66 70 69 69 65 60 50 51 57 56 57 57 43 49 49 54 55 56 56 54 52 54 54 53 53 54 54 52 51 53 56 57 55 51 47 43 46 48 52 56 57 58 60 61
64 67 65 66 62 64 63 58 55 53 53 54 53 47 50 52 54 52 52 56 54 55 57 57 56 56 56 57 56 55 52 52 54 54 51 46 47 48 49 48 54 59 61 61
67 68 66 65 64 64 64 57 57 53 50 44 46 37 44 47 49 52 55 55 56 57 59 60 57 56 56 54 51 50 48 46 45 44 45 46 48 49 50 49 51 54 59 60
60 58 59 62 66 65 51 53 50 48 48 48 48 49 47 47 45 50 52 52 54 54 53 54 55 53 51 49 47 45 45 44 43 42 44 45 45 47 53 54 53 55 57 60
58 57 50 53 60 57 51 48 44 44 40 43 42 45 46 45 47 44 45 46 46 48 51 51 51 50 49 48 46 46 44 46 46 46 48 48 50 53 54 56 57 60 60 61
64 58 45 44 45 45 44 48 46 50 47 45 42 38 36 38 38 36 44 46 48 48 48 48 49 49 47 47 46 45 47 49 48 48 51 54 56 57 57 59 62 62 62 65
58 50 47 45 37 34 34 44 48 47 36 36 34 33 35 36 36 40 42 43 44 44 45 46 45 44 43 43 43 42 41 41 41 43 46 49 51 53 54 55 55 53 54 57
59 59 49 42 37 36 39 39 42 37 30 29 28 33 35 37 37 38 39 38 38 39 41 43 43 43 43 44 44 45 43 41 39 40 42 44 45 46 47 47 46 48 50 50
52 44 36 38 37 38 35 34 30 31 31 29 33 35 36 36 36 37 37 35 34 34 36 38 39 41 42 42 40 39 38 38 38 39 38 38 39 39 41 43 45 47 46 47
47 45 45 41 35 30 29 29 30 29 29 33 35 37 35 34 34 34 34 34 35 36 36 37 37 38 39 39 39 39 39 41 40 41 40 39 40 40 40 40 40 40 41 42
47 45 43 40 37 37 38 37 33 30 31 35 37 37 34 32 30 30 30 30 32 34 35 36 36 34 35 36 38 39 39 37 36 37 37 37 37 37 37 38 39 40 42 43
47 44 42 38 35 36 33 33 34 36 38 42 42 40 36 32 30 30 28 28 30 32 35 36 36 36 37 36 38 39 37 36 36 36 38 38 39 38 38 39 40 42 44 46

GFSCGP_500_spd_117.txt.gz
Wind_Speed
61 64 64 66 59 53 51 49 47 41 35 39 33 32 30 31 26 24 22 17 11 14 20 20 18 19 18 18 17 17 15 15 16 18 18 19 19 18 19 20 20 22 23 23
54 63 61 62 59 56 54 51 49 42 44 45 37 33 35 35 27 26 22 20 20 18 16 18 18 18 19 19 19 20 20 18 18 19 20 19 19 19 19 19 22 24 27 26
59 48 60 60 60 58 57 55 52 48 45 46 40 38 37 33 32 28 24 24 20 17 17 17 15 15 17 18 22 22 23 23 20 21 19 19 19 20 20 22 24 26 26 28
62 64 56 60 61 58 58 55 54 49 46 47 40 40 39 35 33 30 27 24 20 18 16 15 16 15 16 21 23 27 26 26 23 23 22 22 22 23 26 27 27 29 29 30
59 62 61 64 64 59 55 54 52 48 46 46 45 49 38 39 38 29 30 26 24 22 21 18 18 17 19 20 22 24 29 27 26 25 26 27 26 28 30 31 32 32 32 34
67 68 61 52 64 61 56 55 52 50 49 55 48 48 45 41 38 33 33 27 26 24 26 23 18 18 18 18 19 24 27 27 31 30 30 30 30 32 34 35 36 37 37 37
55 57 54 60 66 62 59 57 55 53 54 60 51 52 53 40 36 31 32 29 28 27 27 24 24 23 22 23 23 22 21 22 26 30 32 34 35 36 38 39 40 41 41 42
58 58 54 55 67 64 63 64 63 60 58 55 51 52 53 42 40 35 35 33 30 28 28 28 26 26 23 24 25 23 25 23 24 26 28 32 36 41 43 43 44 45 46 47
59 54 54 60 62 66 65 64 58 55 54 54 55 51 49 46 38 38 36 34 33 32 31 30 29 29 29 29 30 31 31 32 31 33 35 35 38 42 45 46 47 49 50 50
65 58 57 58 60 71 67 61 61 57 55 55 56 53 48 47 39 37 35 35 35 35 34 33 34 35 35 34 35 36 36 36 37 38 39 40 41 41 45 48 50 51 52 53
70 62 59 55 60 61 69 72 67 61 56 53 53 55 47 46 43 38 37 36 36 37 40 41 39 38 39 40 40 41 41 42 44 44 44 44 43 43 43 44 48 52 54 55
71 68 65 55 54 55 63 66 70 70 62 57 54 54 49 44 44 40 37 39 42 44 43 42 43 44 43 44 45 46 47 48 49 49 47 47 46 47 48 47 48 48 49 51
66 72 69 62 61 63 62 61 62 62 59 56 53 48 49 50 48 48 46 46 46 47 48 47 46 46 46 46 46 47 48 49 51 54 54 55 55 55 54 52 52 55 55 54
65 65 66 59 46 49 53 57 61 63 57 48 41 44 51 53 53 51 52 53 50 49 49 49 47 49 49 49 49 49 50 51 50 49 51 53 55 56 53 53 53 51 52 54
67 62 63 58 55 58 50 55 61 63 57 56 39 48 49 51 54 56 56 53 51 51 50 49 48 49 51 52 52 51 53 53 53 52 51 49 48 50 50 48 49 49 51 50
66 65 63 62 58 55 59 56 48 53 56 55 54 50 51 56 59 57 54 52 51 51 51 51 51 50 51 50 52 53 55 55 53 52 51 49 48 48 49 51 54 53 52 53
62 59 58 67 68 64 68 57 54 48 46 49 56 45 53 52 52 53 52 52 50 49 49 49 49 50 50 51 54 56 55 53 51 52 49 46 47 48 50 53 55 55 54 53
59 62 60 64 67 70 58 59 53 57 54 50 46 43 42 39 41 46 49 49 49 49 49 49 51 52 51 49 50 50 48 46 46 47 47 47 49 52 52 54 56 55 56 56
59 63 67 66 63 62 56 54 55 53 48 50 50 47 44 44 42 45 45 48 47 48 51 52 50 47 47 47 47 47 47 47 46 47 48 49 50 52 53 54 55 55 55 54
65 67 63 65 61 57 50 51 48 50 50 43 42 42 40 42 44 38 40 42 46 48 46 43 43 45 46 47 47 46 45 42 40 40 40 40 40 41 43 43 45 46 47 46
65 63 60 59 53 51 46 45 44 48 30 37 41 39 40 41 37 37 38 41 42 41 41 42 41 42 42 41 39 37 37 36 36 36 38 38 39 39 40 43 44 46 47 45
56 54 50 51 50 46 39 38 37 38 40 41 38 38 39 39 37 39 41 40 39 38 38 39 40 38 35 35 35 34 33 33 35 35 34 34 35 35 37 37 37 38 39 39
55 49 44 41 38 45 43 42 42 42 39 35 38 39 37 36 38 38 35 38 37 37 36 35 36 35 33 32 32 32 32 32 33 34 35 36 37 39 40 41 42 42 41 39
52 54 54 50 44 39 32 34 33 32 33 32 35 38 36 34 36 36 36 38 37 35 36 37 34 36 36 33 32 34 35 34 34 34 35 35 36 36 38 39 39 38 38 37
50 52 51 45 39 36 36 41 33 31 30 35 34 32 34 37 38 38 37 36 35 33 34 34 34 33 31 29 31 34 36 35 36 36 36 36 37 37 37 37 36 36 37 39
51 46 41 38 37 36 35 33 32 34 37 35 35 38 39 40 40 39 37 36 34 31 31 31 31 30 30 32 35 38 40 40 40 40 39 41 41 43 41 39 39 39 40 41

GFSCGP_500_spd_120.txt.gz
Wind_Speed
34 54 66 60 52 54 50 52 49 43 39 39 40 35 36 35 29 22 17 17 16 16 21 17 19 20 21 18 16 16 17 16 15 16 16 17 18 17 18 19 19 21 22 23
53 43 52 53 55 56 57 53 51 47 44 45 43 40 38 40 29 25 22 20 19 20 18 16 17 21 22 22 20 18 19 19 20 19 19 17 16 16 16 17 21 23 24 23
55 38 52 58 57 58 58 57 55 52 48 50 47 46 40 36 34 30 26 24 22 20 21 21 17 19 22 22 23 23 24 23 22 21 19 17 16 17 17 20 21 23 24 26
56 55 47 50 53 54 57 56 57 56 52 53 51 51 44 37 35 35 28 24 23 21 22 22 20 18 18 21 21 26 27 27 25 25 21 20 20 19 23 23 23 26 27 29
65 68 60 51 39 42 49 52 53 54 55 55 55 55 44 43 40 32 27 28 26 25 22 20 20 18 18 19 19 19 20 22 26 27 26 26 24 25 27 27 29 30 32 33
72 69 65 59 51 56 47 50 54 55 54 62 59 56 54 46 39 32 32 31 29 28 23 23 23 22 18 20 18 18 18 20 21 24 27 29 30 30 30 31 33 35 36 37
70 73 70 64 48 55 54 50 57 60 62 66 60 61 61 45 40 34 35 33 32 32 28 27 24 24 24 23 22 21 19 18 20 19 19 21 27 29 32 35 38 40 41 42
67 77 73 70 66 53 44 51 54 69 69 64 64 65 63 47 42 34 37 33 33 33 32 30 27 27 27 26 24 24 22 21 20 21 22 25 27 30 34 37 41 43 45 47
64 65 70 71 74 73 70 64 52 61 69 65 64 63 59 51 43 40 36 35 34 35 35 33 31 29 29 29 30 30 28 28 27 28 29 31 34 36 39 41 43 44 47 50
58 59 57 63 72 69 68 60 64 64 69 72 67 65 60 56 41 40 40 37 37 36 34 34 35 35 34 34 33 32 33 34 34 34 36 37 39 41 42 45 46 47 47 48
61 54 61 58 64 62 60 64 60 59 64 66 67 65 56 52 45 41 39 37 37 37 36 36 38 39 38 37 36 38 39 40 41 41 41 42 43 44 45 46 47 47 48 47
68 70 64 62 60 56 50 52 56 55 54 66 68 66 57 51 47 39 35 34 35 38 41 42 41 41 42 41 43 45 46 46 45 45 45 46 47 48 50 51 52 52 53 54
78 73 62 60 60 62 60 52 54 57 61 57 64 64 57 52 46 45 40 39 41 42 43 43 43 44 46 48 49 48 48 48 48 47 48 49 50 51 51 51 51 51 53 54
85 84 84 84 69 63 60 53 52 58 61 49 50 52 55 55 50 46 43 42 41 43 45 46 48 49 50 51 51 51 51 52 52 52 51 51 52 54 57 58 56 54 52 50
82 85 79 66 70 68 65 61 56 56 49 60 39 50 54 61 58 49 49 50 48 46 46 47 50 52 53 54 54 54 53 52 53 54 54 55 56 57 57 56 56 55 55 52
79 74 77 72 70 66 68 69 62 51 56 54 50 47 42 52 57 55 51 50 51 46 45 47 48 48 49 51 52 53 52 53 54 56 57 59 59 57 55 55 53 53 54 56
77 76 71 83 73 73 75 76 69 51 50 47 55 40 50 52 52 52 50 51 45 46 47 46 44 44 45 44 47 49 50 51 51 51 53 55 54 54 53 53 55 55 57 60
77 71 65 73 73 75 70 62 62 55 52 50 46 48 47 51 54 55 52 51 49 49 49 48 45 43 43 44 45 47 49 50 51 52 52 52 53 53 53 54 54 56 57 58
60 58 62 65 72 66 57 53 55 54 48 47 47 47 43 38 40 52 54 54 54 54 47 42 42 44 44 43 42 42 43 46 49 50 50 50 50 49 47 47 47 46 44 43
65 59 69 68 62 68 50 51 55 58 60 48 47 49 51 49 53 52 51 47 45 43 42 41 40 40 40 41 42 44 46 47 46 45 42 39 37 37 38 40 41 41 41 41
58 68 64 69 71 53 50 57 54 57 40 34 43 48 52 51 47 42 43 47 48 45 42 37 36 36 38 40 43 45 45 44 42 41 41 41 41 39 38 38 37 37 38 39
59 65 67 71 71 57 47 54 52 36 36 38 37 40 46 48 44 40 42 44 42 40 37 39 34 36 39 41 41 42 42 42 40 39 38 37 37 37 37 37 38 37 39 39
60 50 61 65 46 52 47 49 50 46 41 38 42 35 42 44 49 46 41 39 38 40 36 34 36 39 40 40 40 41 41 40 40 41 40 38 38 38 39 39 37 37 38 37
51 48 46 43 50 48 46 45 44 44 36 32 35 37 37 36 38 40 38 38 37 35 36 39 39 39 38 38 39 41 41 42 41 39 36 35 37 38 40 41 41 42 40 39
42 46 46 43 44 42 38 37 42 35 43 43 37 39 36 39 37 40 39 39 39 40 42 40 39 37 36 38 39 37 37 35 33 33 34 34 36 39 40 41 44 45 46 47
50 47 43 44 42 41 37 36 36 38 30 31 34 35 36 37 39 40 41 41 42 44 42 41 39 37 37 38 38 34 34 35 36 37 38 40 43 44 47 47 48 48 47 47

GFSCGP_500_spd_123.txt.gz
Wind_Speed
61 61 43 45 45 43 41 44 45 43 45 45 39 32 36 35 31 20 21 21 20 21 25 18 17 21 22 21 20 19 18 19 19 19 19 20 19 17 18 19 18 20 22 23
42 48 37 40 46 50 49 42 44 42 44 48 45 39 39 40 38 24 24 22 20 21 18 17 20 21 23 24 24 22 22 20 23 23 23 21 20 17 18 19 21 23 22 22
64 41 45 45 48 52 52 45 43 44 47 49 49 48 43 42 42 30 28 26 23 21 21 20 19 18 19 22 26 27 27 26 25 26 24 22 19 18 20 22 22 22 22 23
56 54 55 53 34 40 43 52 47 47 50 51 52 55 45 43 41 36 31 28 25 25 26 26 22 19 20 22 23 26 30 29 29 28 25 25 24 22 24 24 24 26 26 28
58 54 54 60 40 42 42 47 48 51 55 56 56 61 52 47 45 39 28 31 32 30 29 26 23 19 19 23 22 21 22 22 25 25 27 27 26 26 28 27 28 29 30 31
56 55 62 52 45 48 44 47 45 49 52 60 57 61 64 49 46 38 35 33 34 34 31 27 27 21 19 22 21 23 22 22 21 20 21 24 27 30 30 31 31 33 34 35
50 54 56 57 54 55 45 39 37 47 53 59 60 65 67 54 47 39 40 38 35 34 31 28 27 25 22 21 24 23 23 22 21 20 18 18 22 24 26 29 31 33 37 40
50 53 50 52 58 55 53 50 51 49 53 54 51 56 65 63 46 38 41 37 36 32 32 30 29 27 26 25 25 25 24 27 26 23 22 22 23 26 28 31 34 38 41 44
51 49 47 46 56 67 67 65 48 50 51 55 60 56 58 63 52 45 40 38 37 36 36 31 30 30 29 30 29 29 28 28 28 28 29 29 30 32 34 37 40 42 44 45
48 47 48 51 52 59 69 66 68 62 57 56 59 57 57 53 52 44 45 43 38 37 35 33 33 33 34 33 34 34 32 33 32 34 34 36 38 39 41 43 43 44 46 47
51 54 52 53 56 53 55 64 68 66 64 63 60 59 50 50 46 46 44 44 41 40 37 38 39 37 35 35 35 37 38 38 38 38 40 41 43 44 45 46 46 47 49 50
53 54 56 58 53 54 56 61 62 68 66 67 68 62 54 52 49 46 46 45 44 41 39 37 35 36 37 37 37 39 40 41 42 43 46 48 48 48 48 47 47 48 48 50
52 57 53 56 52 58 58 57 58 56 61 65 61 63 51 50 48 46 47 45 41 39 38 39 39 40 40 41 41 42 43 45 47 49 50 51 52 52 51 51 51 51 52 51
55 54 61 63 59 57 54 56 60 56 56 47 56 47 52 47 46 43 45 41 43 44 43 44 43 42 42 43 44 47 48 49 50 52 53 53 54 54 55 56 56 56 56 56
60 63 63 64 60 64 66 62 58 60 57 58 47 48 44 42 46 46 45 46 46 45 45 44 44 44 46 47 49 51 52 52 53 53 53 54 55 56 55 57 59 59 59 59
55 54 56 67 65 72 74 71 64 64 55 60 52 52 47 49 48 48 47 50 50 46 46 45 45 48 49 50 53 54 56 57 58 58 58 57 56 56 58 58 60 58 56 53
54 56 53 61 66 80 85 76 71 67 61 57 54 39 42 48 49 48 50 51 52 50 49 50 51 51 50 50 50 50 51 52 51 49 50 52 53 53 53 54 53 53 54 55
57 55 56 52 56 79 75 72 71 72 67 70 68 51 50 46 43 47 52 51 47 49 52 50 50 49 47 48 48 48 47 46 46 47 46 46 46 47 49 50 52 53 52 52
53 54 59 65 68 55 69 66 52 49 47 53 59 58 54 50 51 49 54 54 49 46 48 50 51 46 47 49 50 48 45 45 44 41 41 42 44 47 49 50 49 48 46 44
55 59 57 62 75 82 64 55 58 71 70 55 53 59 59 55 55 50 49 56 55 52 51 49 50 50 49 48 44 41 41 38 36 37 39 42 43 43 43 41 41 41 42 43
68 61 51 63 75 80 51 62 64 75 47 43 55 53 54 57 52 44 42 43 42 43 46 49 48 44 44 40 40 39 38 36 37 39 40 40 41 38 36 37 38 39 39 38
66 54 53 57 71 65 61 65 69 37 47 51 50 44 51 51 46 48 48 45 47 48 49 49 49 48 43 42 42 42 39 39 36 40 38 38 37 37 38 39 37 39 39 38
64 47 46 42 49 51 55 55 55 53 50 45 47 42 37 40 40 41 50 48 49 49 49 50 49 45 44 43 41 41 39 37 38 38 38 39 39 40 40 38 37 37 36 37
57 39 40 51 44 43 51 50 49 51 48 38 35 41 38 36 36 38 45 51 51 50 46 44 41 42 44 42 42 41 36 37 37 36 37 39 39 38 36 34 34 35 36 39
65 48 36 47 46 37 42 52 44 53 52 48 51 46 40 37 38 40 43 43 48 50 48 46 44 47 46 45 42 40 38 39 38 38 39 40 40 39 38 38 39 41 42 43
63 40 37 46 45 46 39 36 38 36 36 42 43 43 40 42 38 40 39 42 42 48 46 46 48 49 48 45 44 42 41 42 41 41 41 42 44 44 43 44 45 46 47 49

GFSCGP_500_spd_129.txt.gz
Wind_Speed
46 47 42 35 50 48 46 48 45 46 47 50 48 45 40 40 38 32 29 24 20 20 26 24 22 24 26 26 26 26 24 21 19 19 19 20 22 20 19 21 20 20 21 21
62 54 50 38 37 47 45 43 45 45 47 52 52 51 41 44 41 35 31 28 24 22 23 23 25 24 26 27 28 28 28 25 23 24 24 23 23 21 20 20 21 21 22 21
58 58 60 48 41 47 44 46 44 42 45 48 51 54 44 44 45 40 36 29 28 23 22 22 23 26 26 25 27 27 27 27 26 27 25 25 25 23 23 24 23 23 21 22
48 49 54 59 46 37 44 45 38 37 42 46 48 58 49 47 47 42 36 31 26 27 25 26 24 23 25 25 24 24 24 25 27 27 25 26 26 26 26 26 26 26 25 25
44 43 46 53 60 53 40 38 38 36 45 46 49 56 50 47 47 41 35 34 29 30 30 30 27 24 25 24 23 24 25 24 24 22 20 22 22 25 27 25 27 27 28 28
38 43 41 43 45 52 54 43 37 37 41 49 42 49 60 44 45 41 35 35 34 33 33 32 32 28 27 28 27 27 27 24 23 23 23 23 23 24 25 25 26 27 28 28
50 49 46 44 45 48 57 56 53 48 44 49 50 50 53 41 41 37 33 36 38 35 33 31 33 30 30 30 28 26 27 24 25 25 24 24 26 25 25 27 27 28 29 31
48 46 45 44 42 44 47 49 54 53 52 43 49 57 52 44 37 37 36 35 39 41 38 37 34 33 32 32 30 28 29 29 28 27 26 28 28 26 27 28 31 32 31 34
54 50 46 41 43 47 47 49 48 50 53 50 51 50 55 55 45 42 41 41 41 40 41 44 40 38 36 33 34 33 32 33 32 30 30 30 31 31 32 33 33 35 37 39
56 56 55 52 47 37 39 43 41 40 46 51 53 52 52 45 39 40 38 36 39 40 40 45 43 43 41 37 36 37 35 35 36 35 33 32 34 36 36 37 38 39 41 44
58 57 58 56 55 49 52 46 45 47 51 50 54 53 47 47 38 35 30 27 27 32 35 39 46 46 42 41 39 39 39 39 39 39 39 38 39 40 40 40 41 43 45 46
58 60 61 58 56 58 59 57 53 50 47 53 53 51 40 42 38 35 35 32 32 33 27 37 42 45 45 42 42 41 41 42 42 42 43 42 43 42 43 44 44 46 48 50
57 62 61 61 60 58 58 54 49 46 50 47 53 50 41 40 44 42 43 42 39 39 35 32 35 44 45 47 47 46 44 44 44 46 47 47 46 46 47 47 48 50 51 49
54 57 57 57 54 57 56 56 56 51 51 43 46 30 33 33 34 35 37 39 41 40 44 36 37 39 46 47 46 46 47 46 47 48 48 49 49 49 49 49 51 51 50 47
53 55 57 52 54 55 52 53 49 42 46 47 33 39 34 30 34 36 39 38 36 38 40 43 42 42 47 48 47 46 46 46 47 50 51 51 51 51 50 52 51 50 48 47
52 53 54 58 56 56 58 57 55 52 49 50 42 42 27 32 35 37 39 38 38 32 40 45 45 45 47 51 49 48 48 49 51 51 50 51 52 53 53 52 52 52 51 51
49 52 53 57 56 63 66 57 58 57 55 49 51 37 34 39 42 39 36 34 35 39 42 47 50 49 50 50 49 49 49 50 49 50 51 52 53 53 54 55 56 52 53 50
45 46 48 56 59 63 60 60 58 60 56 55 54 46 43 43 51 49 41 37 39 41 47 48 44 45 49 53 53 51 52 51 52 51 52 52 52 53 53 53 53 50 49 46
34 37 45 52 55 59 61 54 57 61 60 57 54 48 50 53 57 54 44 50 47 47 45 50 45 42 50 50 57 59 57 56 56 53 52 51 51 52 51 53 51 50 47 47
43 48 48 45 55 59 55 48 52 56 63 48 53 51 52 56 63 55 55 58 57 54 49 48 48 45 44 51 54 54 61 63 62 59 55 54 54 54 54 54 50 48 48 50
57 58 60 61 66 60 55 47 50 60 55 51 55 58 57 61 62 66 65 65 66 62 59 56 58 54 54 53 52 57 59 59 62 63 59 58 55 53 52 51 50 50 51 50
52 55 57 62 67 69 45 49 57 55 55 57 58 61 64 64 65 66 70 69 69 67 64 62 65 66 63 61 58 57 57 58 62 60 57 58 57 55 53 51 52 52 52 49
56 55 56 62 67 65 58 57 60 61 58 57 58 58 62 63 66 67 69 70 68 68 68 59 59 61 66 69 66 61 57 56 59 59 57 58 58 54 53 54 54 53 52 51
56 55 58 61 62 62 66 67 70 69 73 68 62 58 57 57 60 60 60 66 66 55 63 61 58 60 62 62 65 57 51 52 55 58 59 59 57 56 56 56 55 53 53 52
56 58 59 62 64 64 61 66 70 72 68 64 64 57 57 57 42 53 56 57 60 59 51 60 60 57 58 62 61 61 57 53 54 58 58 59 61 60 59 57 55 54 53 52
60 62 64 63 61 62 62 60 64 62 64 66 63 61 57 57 46 43 47 50 53 59 56 49 55 56 59 66 65 61 58 60 61 63 62 65 66 64 61 55 52 55 54 53

GFSCGP_500_spd_132.txt.gz
Wind_Speed
58 58 43 54 47 42 51 52 59 54 52 54 52 49 39 42 41 38 34 29 25 25 27 26 28 29 28 29 31 30 28 25 21 20 20 19 21 21 20 20 21 21 24 23
51 60 50 42 50 47 47 48 52 56 55 54 52 55 43 45 44 40 38 35 28 27 26 23 26 26 28 29 30 30 30 28 25 24 25 23 24 23 22 22 23 24 25 23
56 56 61 46 44 37 39 51 44 51 50 50 52 57 47 47 48 43 40 38 34 29 29 27 24 26 27 26 30 30 30 30 28 28 29 27 26 25 25 25 27 26 23 22
61 66 70 68 50 44 34 29 48 50 47 49 53 58 54 50 50 47 41 39 34 33 31 32 28 25 24 25 28 27 26 28 27 27 26 28 27 26 27 26 27 26 26 26
60 62 52 63 68 57 48 36 40 51 53 51 49 55 47 46 49 47 41 38 36 36 35 35 33 29 27 26 23 24 23 23 25 25 26 26 24 25 27 25 26 26 27 26
56 51 50 49 51 52 52 54 44 42 45 50 45 48 51 39 38 45 45 40 38 38 37 35 35 31 29 29 29 28 28 28 29 28 28 27 28 29 28 26 27 27 27 27
47 46 44 43 43 48 53 56 57 52 46 49 43 49 50 33 38 38 40 38 41 39 39 38 38 37 37 34 33 33 31 30 31 30 27 26 28 31 29 30 29 29 28 28
41 47 47 48 44 42 40 42 49 52 54 44 44 46 45 34 34 38 39 36 38 39 41 41 39 40 39 36 36 35 34 34 35 33 30 30 30 32 32 32 31 31 31 32
57 46 47 40 40 41 42 41 39 46 50 59 55 44 48 42 36 37 36 34 39 40 38 38 41 41 41 41 38 38 37 37 36 35 36 34 33 33 34 35 36 34 35 37
50 52 44 46 46 44 40 40 38 40 44 50 55 51 48 44 39 41 44 43 42 43 44 44 44 41 43 46 44 42 41 39 40 40 39 39 38 37 38 39 39 39 40 40
54 49 50 49 47 43 41 37 36 36 44 49 58 54 51 50 44 37 36 37 38 39 40 44 45 48 48 47 47 47 46 46 45 45 44 42 42 41 42 41 42 42 44 45
54 56 57 56 54 52 51 47 40 36 32 41 50 64 51 53 42 41 38 38 41 39 42 42 43 46 48 50 51 49 49 50 49 49 48 45 46 45 45 45 46 47 49 49
58 59 58 59 59 58 56 53 52 51 57 53 54 59 53 51 48 43 39 42 44 43 47 43 46 46 48 51 52 54 53 53 53 52 51 49 49 49 49 50 52 52 51 52
57 58 61 60 56 60 61 56 52 54 56 56 60 47 43 47 52 51 44 41 47 50 52 50 50 52 47 49 51 54 57 56 55 55 53 52 51 51 52 54 55 55 54 55
56 57 59 57 58 59 59 58 56 57 53 59 53 54 47 41 46 43 45 42 41 47 52 53 53 53 56 51 50 50 53 57 59 59 57 56 56 55 55 56 57 57 56 56
53 58 57 59 59 60 61 58 57 57 54 61 54 55 37 40 43 42 38 38 38 38 44 47 52 54 57 60 58 55 54 57 59 58 59 59 58 57 57 57 58 58 57 55
49 49 50 53 53 54 60 57 57 54 54 54 55 45 43 46 47 42 42 38 34 33 36 42 43 47 49 56 61 61 57 57 60 61 60 60 59 59 59 59 59 57 55 52
44 46 48 51 54 59 56 55 53 57 53 54 52 48 47 51 51 45 42 43 41 38 34 35 37 41 43 45 51 56 59 59 61 63 63 64 63 62 62 60 58 56 54 53
33 35 40 43 49 54 54 52 52 54 56 56 49 46 50 55 56 51 52 50 49 46 44 42 40 45 48 50 52 55 57 57 59 63 66 63 63 62 61 61 61 58 57 56
35 34 37 43 46 50 46 43 46 51 57 49 53 56 59 62 61 50 58 57 56 56 54 51 51 46 48 53 56 57 56 57 58 58 64 66 64 61 61 61 61 59 57 56
41 41 42 40 44 50 49 41 43 51 44 46 50 56 61 64 61 57 62 63 63 61 60 58 57 56 51 56 61 62 61 58 60 63 63 65 66 68 68 67 64 62 61 59
43 45 50 48 49 52 49 47 54 52 50 56 57 56 58 63 63 63 65 65 66 66 65 64 64 64 66 62 63 67 67 65 62 65 68 65 63 65 65 64 61 63 65 62
47 45 48 52 55 59 63 61 61 61 60 63 61 60 61 64 64 66 66 67 69 72 74 75 74 70 72 73 71 67 70 73 71 68 64 62 62 63 65 67 64 64 65 62
45 45 50 52 53 56 58 61 64 62 65 66 70 66 65 65 65 67 68 70 72 75 77 81 80 80 78 76 77 72 71 78 78 77 72 68 67 68 68 69 68 64 63 63
48 50 52 55 54 55 59 62 62 64 65 70 74 74 74 72 68 71 71 69 65 65 67 74 70 77 72 63 72 68 66 75 79 78 69 62 64 66 66 68 68 64 65 66
49 52 55 56 57 58 57 60 63 65 66 69 72 71 73 77 78 75 73 74 71 71 66 65 60 63 63 64 61 59 67 66 71 72 66 62 65 65 63 64 66 63 65 64

GFSCGP_500_spd_138.txt.gz
Wind_Speed
70 71 70 63 56 51 50 54 66 56 59 63 59 52 47 46 49 46 41 41 40 36 34 35 37 30 30 30 31 32 32 33 33 30 27 27 24 22 21 22 21 20 19 20
74 73 64 68 60 57 49 49 51 56 60 52 57 62 63 51 53 50 44 41 39 38 37 37 37 35 32 31 30 31 34 36 34 33 34 30 29 26 25 23 24 23 23 23
62 64 70 67 63 66 56 51 42 43 52 51 52 57 56 50 49 52 46 44 42 42 40 38 36 37 34 34 32 31 35 34 33 33 34 32 30 30 28 31 28 27 26 23
67 57 64 68 66 67 70 56 56 46 40 45 50 51 49 55 45 46 45 44 45 45 41 41 40 42 40 37 38 36 32 34 32 32 32 30 27 28 30 31 29 29 29 28
64 61 61 62 65 66 63 60 53 48 42 50 44 47 45 46 49 52 53 53 53 51 48 46 44 44 46 43 42 38 35 34 35 33 30 30 27 29 31 30 28 30 31 31
56 61 58 55 60 52 52 51 43 46 50 47 36 35 33 37 36 37 52 58 56 52 50 50 48 48 48 46 44 42 39 36 36 35 30 28 28 29 29 30 31 32 32 31
40 55 55 58 61 64 61 50 50 50 55 55 56 50 42 40 33 32 41 48 55 55 52 51 50 50 50 49 46 45 41 39 40 39 35 32 33 34 33 34 33 33 33 30
52 56 54 51 55 61 57 56 63 61 61 57 60 53 41 33 24 27 36 38 44 49 51 51 53 53 53 53 50 47 45 43 44 42 38 36 37 39 39 37 36 36 35 34
40 36 36 52 54 51 56 58 54 56 56 55 63 60 45 36 37 33 35 38 42 41 48 50 50 52 54 53 53 51 47 46 45 46 44 43 42 41 41 42 41 39 39 38
48 30 46 49 53 53 53 50 51 49 51 52 57 64 54 49 50 48 42 38 35 36 34 39 43 45 49 50 52 53 51 49 47 48 48 45 46 45 44 44 43 43 43 43
58 44 30 42 52 45 52 53 57 57 54 53 60 59 54 53 53 45 41 43 46 34 34 38 39 43 47 48 50 51 52 50 50 49 48 47 47 49 49 48 47 47 47 48
66 47 45 33 34 52 59 54 51 50 50 47 52 56 50 41 42 40 36 37 45 49 39 38 42 46 47 48 48 48 49 49 48 47 47 48 50 52 53 53 52 53 53 53
66 66 54 51 43 35 39 46 45 49 52 51 45 53 45 42 39 38 33 38 39 40 40 43 45 49 50 52 51 51 52 52 52 51 48 49 50 53 55 57 59 60 60 60
60 59 61 48 35 43 44 42 38 31 36 37 42 42 43 37 34 32 36 38 40 35 41 43 49 53 51 52 55 56 58 61 59 60 59 62 62 62 63 63 64 65 66 65
52 54 54 54 56 41 33 35 37 50 37 37 31 43 38 37 40 41 42 44 44 42 44 47 54 52 55 60 60 59 60 60 61 61 61 64 65 65 63 63 65 66 66 66
47 50 50 51 50 52 60 52 50 49 42 42 37 42 37 38 44 47 51 53 52 52 55 52 52 54 58 62 62 64 65 64 61 61 63 64 66 66 63 60 59 58 61 65
43 47 49 53 49 49 56 55 54 53 49 45 49 46 48 49 50 53 55 55 58 61 62 59 54 56 59 60 63 67 67 69 67 64 66 67 66 68 66 65 64 61 60 60
41 43 46 50 52 53 48 50 52 52 52 50 50 51 52 56 56 59 62 61 62 63 65 66 64 59 60 62 62 62 69 70 70 68 71 74 73 73 72 67 66 65 66 65
38 40 43 43 45 47 49 47 48 52 54 51 52 52 53 58 62 65 66 65 65 68 69 69 69 67 60 61 62 59 60 64 67 69 70 69 72 77 77 76 74 72 69 67
35 39 39 42 42 46 45 45 46 51 50 52 53 54 55 56 61 66 67 69 69 69 70 72 71 69 67 65 64 62 60 60 60 59 60 61 60 59 56 55 55 55 55 54
30 33 36 38 39 40 39 38 40 44 46 48 51 50 53 56 60 65 68 67 70 70 71 73 74 74 72 69 69 66 65 64 63 61 58 57 55 53 52 52 51 51 51 52
33 30 27 28 31 37 39 36 39 39 39 43 46 49 52 55 57 58 64 67 68 70 71 73 75 75 73 70 71 72 71 70 68 67 64 62 60 58 59 59 57 57 56 55
35 32 32 33 33 40 43 45 45 46 46 48 50 50 53 57 59 59 62 66 68 69 71 71 74 75 74 72 71 73 73 75 75 70 71 70 67 66 67 67 64 63 63 63
41 39 39 39 38 42 49 51 53 55 57 59 61 63 65 65 67 69 70 70 71 71 71 72 75 76 76 75 75 75 75 76 76 77 75 73 73 72 71 70 70 69 68 69
34 38 39 40 42 44 47 51 55 58 61 63 64 65 65 66 65 68 72 74 77 79 80 80 78 78 79 78 79 78 78 78 78 77 77 77 76 75 76 75 74 73 72 73
38 38 40 42 42 45 48 51 54 55 59 64 67 67 69 71 72 72 72 74 74 74 76 81 82 82 82 84 83 83 83 82 82 80 80 80 79 78 78 78 77 77 77 77

GFSCGP_500_spd_141.txt.gz
Wind_Speed
71 72 71 67 67 62 60 57 54 42 42 45 52 50 46 44 48 50 49 49 47 44 41 37 32 31 32 35 30 29 31 32 36 34 33 32 28 25 24 24 24 25 23 22
70 75 66 71 66 62 55 58 59 47 49 54 54 49 51 50 49 49 53 48 50 47 44 43 39 36 33 33 35 33 32 34 35 36 36 34 32 30 29 27 28 28 25 24
59 59 66 70 70 65 63 61 56 54 51 48 44 55 46 45 47 52 53 53 47 50 49 47 46 42 37 35 36 38 37 37 33 35 37 34 32 31 31 32 32 31 29 29
60 54 58 64 71 67 66 63 63 60 57 53 53 47 46 45 45 48 56 62 60 55 55 53 50 47 42 38 38 40 40 38 35 33 32 34 33 31 31 34 32 32 31 31
61 57 58 57 56 57 63 62 62 61 60 55 52 54 44 32 33 38 47 56 55 53 53 56 54 50 47 44 41 41 41 40 38 38 36 32 32 33 34 34 32 31 32 32
59 59 61 57 57 50 48 60 62 57 57 71 54 57 36 31 37 34 33 40 49 57 55 55 55 52 51 50 46 44 44 44 44 42 38 35 32 32 35 35 33 32 32 32
41 50 48 62 65 54 56 53 55 54 48 56 57 54 61 53 48 43 43 38 35 42 53 57 59 55 55 54 54 50 47 46 47 46 43 39 36 36 35 36 35 35 35 34
61 41 33 33 44 59 49 52 46 53 62 54 49 45 44 46 51 52 48 42 37 39 40 41 47 49 54 54 56 55 52 50 48 47 45 44 40 40 38 38 38 39 40 40
62 70 53 54 48 41 52 58 55 61 62 59 61 60 59 51 48 51 49 41 32 33 37 35 39 38 44 50 54 56 55 53 52 50 49 47 46 43 42 41 42 44 44 43
57 57 56 41 29 52 55 49 52 54 57 58 55 54 50 53 52 56 56 51 49 44 40 37 36 39 39 40 45 51 55 56 55 54 53 51 48 47 46 46 44 45 45 46
56 59 45 47 29 25 39 42 56 55 53 53 53 52 47 47 51 51 49 48 47 39 42 44 41 41 41 40 41 44 47 51 52 51 52 51 52 50 49 50 48 48 47 47
49 59 65 60 44 24 42 35 54 60 52 48 51 49 45 49 47 48 42 40 39 39 45 45 44 45 47 46 44 43 45 46 49 50 50 50 52 54 53 51 50 51 51 51
55 34 56 54 49 56 41 59 56 51 54 54 49 43 45 45 46 49 45 39 40 44 43 43 45 48 49 53 54 52 48 48 48 50 49 49 50 50 50 51 50 51 52 52
52 51 46 47 56 59 50 43 40 43 58 61 47 46 53 43 41 37 36 35 33 38 44 43 52 51 50 50 54 55 53 54 53 53 53 53 55 55 54 54 54 54 56 57
49 49 50 52 55 59 68 33 26 29 35 24 23 35 36 36 32 31 35 36 39 42 50 48 47 50 48 47 49 52 54 57 58 57 58 57 57 57 58 59 60 59 59 60
42 44 47 48 51 54 59 59 44 27 33 39 33 27 31 35 37 39 41 46 48 49 47 47 50 51 49 51 51 50 53 56 59 61 60 62 61 60 62 62 61 62 62 63
39 40 40 43 46 48 50 45 47 51 50 40 38 35 44 40 44 46 45 47 49 50 51 53 53 56 57 56 54 53 53 55 58 59 62 64 68 66 66 67 68 68 66 67
38 40 41 43 45 50 53 54 52 52 51 52 52 52 54 54 54 55 54 54 56 58 59 59 60 59 60 60 59 57 56 57 59 60 63 65 66 69 70 68 70 72 72 71
36 36 36 38 41 42 43 46 45 46 47 46 54 55 51 51 55 58 58 60 62 63 65 67 67 66 65 66 66 64 63 63 64 63 63 65 67 68 70 72 74 75 74 74
33 34 35 36 37 37 40 40 42 43 44 45 46 48 52 53 54 57 61 63 65 67 68 69 70 71 72 71 70 69 69 69 69 68 66 66 69 70 71 72 73 72 78 79
31 32 33 33 34 34 37 40 40 41 38 41 45 48 50 53 57 57 58 60 63 65 69 71 73 74 72 73 74 74 74 74 73 72 71 69 70 73 75 74 73 73 69 68
31 32 33 34 35 35 34 36 37 38 39 41 43 44 45 46 50 54 55 55 56 58 62 66 68 71 73 73 73 74 75 77 78 77 75 74 73 76 77 78 76 74 70 66
30 30 31 33 34 34 33 30 30 32 34 37 41 44 46 48 50 53 56 58 61 64 65 67 69 69 70 72 74 74 75 77 78 79 79 76 74 77 81 82 79 79 76 72
28 29 31 31 30 32 34 36 38 39 42 46 48 51 54 57 59 62 65 68 71 74 75 73 73 73 75 77 78 80 79 80 80 80 80 81 80 75 79 84 84 81 80 81
30 30 29 31 36 39 42 44 46 46 46 47 49 52 55 59 61 65 68 71 74 77 78 79 80 79 77 76 76 79 84 85 84 84 84 82 80 81 78 80 83 83 82 82
32 33 35 35 36 39 42 45 47 47 48 50 54 58 61 64 67 71 75 77 80 82 83 84 84 87 87 85 83 82 82 82 84 84 84 85 86 82 82 82 81 83 83 83

GFSCGP_500_spd_144.txt.gz
Wind_Speed
70 70 68 69 68 67 65 64 64 63 64 59 58 61 58 51 48 42 46 47 47 47 44 45 46 44 42 39 36 36 35 32 40 33 34 34 34 32 32 31 30 30 29 29
73 73 67 69 68 67 65 66 65 66 64 63 59 60 59 49 43 36 37 44 51 51 46 47 49 51 47 42 41 40 38 35 36 38 34 35 35 34 35 35 36 35 33 32
71 66 64 68 69 69 68 69 67 66 61 62 64 63 59 54 49 42 45 50 49 55 56 53 53 55 52 49 45 42 42 41 38 38 39 35 33 33 34 35 37 36 34 34
65 65 64 64 66 66 73 70 66 61 62 66 63 68 60 57 56 56 46 44 46 51 51 57 58 57 55 53 50 47 44 45 41 39 39 38 36 31 31 37 36 36 37 36
64 61 61 60 58 55 56 56 62 63 64 65 65 65 61 58 57 47 40 39 38 42 46 50 58 61 56 58 57 52 48 48 47 42 41 39 38 35 35 36 36 35 38 39
57 60 61 60 57 55 53 54 54 57 64 70 70 69 64 56 52 51 49 37 32 38 33 36 48 58 64 60 58 58 53 49 50 48 45 43 42 40 38 37 38 38 39 40
57 61 56 57 57 56 55 56 56 53 52 60 59 65 61 54 51 52 54 52 48 44 42 42 40 46 53 58 53 56 56 54 53 53 50 49 47 45 44 41 41 40 38 39
54 58 61 62 55 52 55 57 61 60 62 55 55 53 45 49 55 56 58 52 43 43 44 45 42 43 40 47 47 50 55 56 57 57 54 53 52 49 48 47 44 43 43 40
53 48 34 34 40 40 48 54 56 58 56 59 60 57 56 42 44 43 42 45 44 43 44 40 43 39 38 41 43 45 45 50 54 56 58 57 56 53 51 51 50 47 46 44
50 54 52 49 34 35 30 31 35 42 50 43 45 42 40 41 52 58 56 56 55 54 51 50 48 44 37 34 35 37 40 45 47 49 53 56 57 55 54 53 52 52 50 51
46 49 50 53 58 40 29 34 41 44 46 43 48 52 51 51 54 56 55 52 52 51 49 51 51 54 49 44 40 36 34 39 43 46 46 48 51 53 54 54 53 53 53 52
45 44 47 48 55 58 46 42 41 38 41 38 39 45 53 51 50 51 54 52 51 51 51 49 51 56 55 55 50 50 47 42 39 44 47 48 49 50 50 52 53 52 52 53
45 46 46 47 45 38 45 44 42 33 39 38 44 51 53 50 51 55 50 49 50 47 46 45 47 50 49 47 47 50 52 50 47 46 45 47 49 49 49 49 51 52 51 50
48 49 47 44 44 43 53 56 51 51 42 34 31 40 44 44 45 53 56 58 48 44 45 46 48 49 50 50 50 54 55 57 55 53 52 51 52 51 54 54 55 55 54 53
47 49 50 49 46 54 48 44 56 56 53 50 38 40 51 47 42 38 46 50 45 46 49 49 49 51 55 55 55 56 57 56 57 57 58 57 56 57 57 56 57 62 55 54
42 42 41 43 46 47 50 48 45 53 63 47 34 39 35 41 42 43 36 46 44 42 38 41 50 53 52 55 54 55 56 57 55 56 57 59 60 60 58 60 59 58 61 60
36 38 41 45 47 47 50 49 54 54 48 51 56 44 43 38 35 34 34 35 35 40 46 49 48 47 52 56 59 59 57 57 57 56 57 58 59 60 59 59 61 60 61 63
38 38 39 42 45 47 45 49 50 46 39 40 46 52 49 57 51 51 49 49 48 47 50 50 52 56 56 56 58 58 59 59 59 60 59 60 60 60 60 60 62 62 63 63
43 40 39 39 41 41 42 46 46 45 44 43 48 49 49 51 55 56 57 59 59 60 63 65 65 65 65 65 66 67 68 69 70 69 68 68 67 66 64 64 63 63 63 64
39 37 37 38 39 40 40 40 42 42 41 41 39 41 43 44 47 48 49 52 53 55 57 61 64 68 70 71 72 74 76 78 78 79 78 78 77 75 74 72 70 68 67 67
36 36 36 36 37 39 40 40 40 40 38 37 38 39 42 45 46 48 48 50 52 54 57 59 62 66 69 71 73 74 75 77 81 83 83 83 86 85 80 79 78 78 74 74
37 36 35 35 37 37 36 37 37 35 36 38 38 40 40 40 42 44 44 45 45 47 49 51 52 54 58 61 65 68 71 73 73 76 79 80 83 86 86 83 83 84 83 84
38 36 36 37 37 36 35 37 37 37 36 36 35 35 36 36 38 40 43 45 48 51 54 57 60 63 66 68 71 73 76 77 77 77 78 81 83 85 87 86 85 86 87 89
35 36 37 36 35 32 32 31 32 32 31 31 33 35 38 42 46 47 50 51 54 57 59 61 65 69 73 77 81 84 86 88 89 88 87 85 83 84 88 88 88 89 89 90
33 34 34 34 31 30 31 31 32 33 35 37 39 42 46 50 52 54 56 58 61 64 68 71 75 79 83 87 90 92 92 94 95 96 96 95 91 89 88 89 90 90 89 90
33 33 33 31 32 33 34 36 37 39 42 44 46 49 51 53 55 58 61 64 68 72 75 77 82 87 92 92 94 94 94 93 93 94 90 87 92 92 89 90 89 87 88 89